• In Moldova, Republic
  • List of Countries
  • For 7 days
  • Water Temperature
  • Satellite Maps
  • Weather Map
  • Weather Widgets
  • user-avatar
    Login

    Hourly Weather Bendery

    Today, 21 August, Tuesday

    Time Temperature Precipitation Wind Pressure Humidity
    00:00 +23°C° 0 mm 2 mps 752 mmHg 38%
    01:00 +23°C° 0 mm 1 mps 752 mmHg 39%
    02:00 +22°C° 0 mm 1 mps 752 mmHg 40%
    03:00 +22°C° 0 mm 1 mps 752 mmHg 41%
    04:00 +22°C° 0 mm 1 mps 752 mmHg 42%
    05:00 +21°C° 0 mm 1 mps 752 mmHg 43%
    06:00 +23°C° 0 mm 1 mps 752 mmHg 40%
    07:00 +25°C° 0 mm 1 mps 752 mmHg 37%
    08:00 +27°C° 0 mm 1 mps 752 mmHg 34%
    09:00 +29°C° 0 mm 1 mps 752 mmHg 33%
    10:00 +31°C° 0 mm 1 mps 752 mmHg 31%
    11:00 +32°C° 0 mm 1 mps 752 mmHg 29%
    12:00 +33°C° 0 mm 1 mps 752 mmHg 29%
    13:00 +33°C° 0 mm 1 mps 752 mmHg 28%
    14:00 +34°C° 0 mm 1 mps 751 mmHg 27%
    15:00 +34°C° 0 mm 2 mps 751 mmHg 28%
    16:00 +34°C° 0 mm 2 mps 751 mmHg 29%
    17:00 +34°C° 0 mm 2 mps 751 mmHg 30%
    18:00 +31°C° 0 mm 2 mps 751 mmHg 33%
    19:00 +30°C° 0 mm 2 mps 751 mmHg 36%
    20:00 +28°C° 0 mm 2 mps 751 mmHg 40%
    21:00 +27°C° 0 mm 2 mps 752 mmHg 42%
    22:00 +26°C° 0 mm 2 mps 752 mmHg 45%
    23:00 +26°C° 0 mm 2 mps 752 mmHg 48%

    Tomorrow, 22 August, Wednesday

    Time Temperature Precipitation Wind Pressure Humidity
    00:00 +25°C° 0 mm 3 mps 752 mmHg 55%
    01:00 +24°C° 0 mm 3 mps 752 mmHg 62%
    02:00 +24°C° 0 mm 3 mps 753 mmHg 69%
    03:00 +22°C° 0 mm 3 mps 753 mmHg 73%
    04:00 +21°C° 0 mm 3 mps 753 mmHg 77%
    05:00 +21°C° 0 mm 3 mps 753 mmHg 80%
    06:00 +22°C° 0 mm 4 mps 753 mmHg 73%
    07:00 +23°C° 0 mm 4 mps 753 mmHg 66%
    08:00 +26°C° 0 mm 4 mps 754 mmHg 59%
    09:00 +27°C° 0 mm 5 mps 754 mmHg 53%
    10:00 +29°C° 0 mm 5 mps 754 mmHg 46%
    11:00 +30°C° 0 mm 5 mps 754 mmHg 40%
    12:00 +32°C° 0 mm 5 mps 754 mmHg 37%
    13:00 +32°C° 0 mm 5 mps 754 mmHg 35%
    14:00 +33°C° 0 mm 4 mps 754 mmHg 32%
    15:00 +33°C° 0 mm 5 mps 754 mmHg 32%
    16:00 +32°C° 0 mm 5 mps 754 mmHg 32%
    17:00 +32°C° 0 mm 5 mps 753 mmHg 33%
    18:00 +29°C° 0 mm 5 mps 754 mmHg 37%
    19:00 +27°C° 0 mm 5 mps 754 mmHg 42%
    20:00 +25°C° 0 mm 4 mps 755 mmHg 46%
    21:00 +23°C° 0 mm 4 mps 755 mmHg 49%
    22:00 +23°C° 0 mm 4 mps 755 mmHg 52%
    23:00 +22°C° 0 mm 4 mps 755 mmHg 55%

    Day after tomorrow, 23 August, Thursday

    Time Temperature Precipitation Wind Pressure Humidity
    00:00 +21°C° 0 mm 4 mps 755 mmHg 56%
    01:00 +20°C° 0 mm 4 mps 755 mmHg 57%
    02:00 +19°C° 0 mm 3 mps 755 mmHg 58%
    03:00 +19°C° 0 mm 3 mps 755 mmHg 59%
    04:00 +18°C° 0 mm 3 mps 755 mmHg 59%
    05:00 +18°C° 0 mm 3 mps 755 mmHg 60%
    06:00 +19°C° 0 mm 3 mps 755 mmHg 55%
    07:00 +21°C° 0 mm 4 mps 756 mmHg 50%
    08:00 +22°C° 0 mm 4 mps 756 mmHg 45%
    09:00 +25°C° 0 mm 4 mps 756 mmHg 41%
    10:00 +27°C° 0 mm 4 mps 755 mmHg 36%
    11:00 +28°C° 0 mm 4 mps 755 mmHg 32%
    12:00 +29°C° 0 mm 4 mps 755 mmHg 30%
    13:00 +30°C° 0 mm 4 mps 755 mmHg 27%
    14:00 +30°C° 0 mm 4 mps 754 mmHg 25%
    15:00 +30°C° 0 mm 4 mps 754 mmHg 25%
    16:00 +30°C° 0 mm 4 mps 754 mmHg 25%
    17:00 +30°C° 0 mm 3 mps 753 mmHg 25%
    18:00 +28°C° 0 mm 3 mps 753 mmHg 28%
    19:00 +26°C° 0 mm 3 mps 753 mmHg 32%
    20:00 +24°C° 0 mm 2 mps 754 mmHg 36%
    21:00 +23°C° 0 mm 2 mps 754 mmHg 38%
    22:00 +21°C° 0 mm 2 mps 754 mmHg 40%
    23:00 +21°C° 0 mm 2 mps 754 mmHg 42%

    24 August, Friday

    Time Temperature Precipitation Wind Pressure Humidity
    00:00 +20°C° 0 mm 2 mps 753 mmHg 44%
    01:00 +20°C° 0 mm 2 mps 753 mmHg 45%
    02:00 +19°C° 0 mm 2 mps 753 mmHg 47%
    03:00 +19°C° 0 mm 2 mps 753 mmHg 50%
    04:00 +18°C° 0 mm 2 mps 753 mmHg 52%
    05:00 +18°C° 0 mm 2 mps 752 mmHg 54%
    06:00 +20°C° 0 mm 2 mps 753 mmHg 50%
    07:00 +23°C° 0 mm 2 mps 753 mmHg 46%
    08:00 +25°C° 0 mm 3 mps 753 mmHg 42%
    09:00 +27°C° 0 mm 3 mps 753 mmHg 37%
    10:00 +29°C° 0 mm 3 mps 752 mmHg 33%
    11:00 +30°C° 0 mm 3 mps 752 mmHg 28%
    12:00 +32°C° 0 mm 4 mps 752 mmHg 26%
    13:00 +32°C° 0 mm 4 mps 751 mmHg 23%
    14:00 +33°C° 0 mm 4 mps 751 mmHg 21%
    15:00 +33°C° 0 mm 4 mps 750 mmHg 21%
    16:00 +32°C° 0 mm 4 mps 750 mmHg 21%
    17:00 +32°C° 0 mm 4 mps 750 mmHg 21%
    18:00 +29°C° 0 mm 3 mps 750 mmHg 23%
    19:00 +27°C° 0 mm 3 mps 750 mmHg 26%
    20:00 +24°C° 0 mm 2 mps 750 mmHg 28%
    21:00 +23°C° 0 mm 2 mps 750 mmHg 29%
    22:00 +23°C° 0 mm 1 mps 750 mmHg 30%
    23:00 +22°C° 0 mm 1 mps 749 mmHg 30%

    25 August, Saturday

    Time Temperature Precipitation Wind Pressure Humidity
    00:00 +21°C° 0 mm 1 mps 749 mmHg 31%
    01:00 +21°C° 0 mm 1 mps 749 mmHg 31%
    02:00 +20°C° 0 mm 1 mps 749 mmHg 32%
    03:00 +20°C° 0 mm 1 mps 749 mmHg 33%
    04:00 +20°C° 0 mm 1 mps 748 mmHg 34%
    05:00 +19°C° 0 mm 1 mps 748 mmHg 35%
    06:00 +22°C° 0 mm 1 mps 748 mmHg 34%
    07:00 +24°C° 0 mm 2 mps 748 mmHg 32%
    08:00 +26°C° 0 mm 2 mps 748 mmHg 31%
    09:00 +28°C° 0 mm 2 mps 748 mmHg 30%
    10:00 +29°C° 0 mm 2 mps 748 mmHg 29%
    11:00 +31°C° 0 mm 2 mps 748 mmHg 28%
    12:00 +33°C° 0 mm 3 mps 748 mmHg 28%
    13:00 +34°C° 0 mm 3 mps 747 mmHg 28%
    14:00 +34°C° 0 mm 3 mps 747 mmHg 28%
    15:00 +34°C° 0 mm 3 mps 747 mmHg 29%
    16:00 +34°C° 0 mm 3 mps 747 mmHg 30%
    17:00 +34°C° 0 mm 3 mps 746 mmHg 32%
    18:00 +30°C° 0 mm 3 mps 747 mmHg 38%
    19:00 +28°C° 0 mm 3 mps 747 mmHg 45%
    20:00 +26°C° 0 mm 3 mps 747 mmHg 52%
    21:00 +25°C° 0 mm 2 mps 747 mmHg 57%
    22:00 +24°C° 0 mm 2 mps 747 mmHg 62%
    23:00 +24°C° 0 mm 2 mps 747 mmHg 67%

    26 August, Sunday

    Time Temperature Precipitation Wind Pressure Humidity
    00:00 +23°C° 0 mm 2 mps 747 mmHg 70%
    01:00 +23°C° 0 mm 1 mps 747 mmHg 74%
    02:00 +22°C° 0 mm 1 mps 747 mmHg 77%
    03:00 +22°C° 0 mm 1 mps 747 mmHg 78%
    04:00 +21°C° 0 mm 1 mps 747 mmHg 79%
    05:00 +21°C° 0 mm 1 mps 747 mmHg 81%
    06:00 +23°C° 0 mm 2 mps 747 mmHg 71%
    07:00 +25°C° 0 mm 2 mps 748 mmHg 61%
    08:00 +27°C° 0 mm 3 mps 748 mmHg 51%
    09:00 +29°C° 0 mm 3 mps 748 mmHg 44%
    10:00 +31°C° 0 mm 3 mps 748 mmHg 37%
    11:00 +34°C° 0 mm 4 mps 748 mmHg 29%
    12:00 +34°C° 0 mm 4 mps 747 mmHg 27%
    13:00 +35°C° 0 mm 3 mps 747 mmHg 26%
    14:00 +36°C° 0 mm 3 mps 747 mmHg 24%
    15:00 +35°C° 0 mm 3 mps 746 mmHg 24%
    16:00 +35°C° 0 mm 4 mps 746 mmHg 25%
    17:00 +35°C° 0 mm 4 mps 746 mmHg 25%
    18:00 +32°C° 0 mm 4 mps 746 mmHg 30%
    19:00 +29°C° 0 mm 4 mps 746 mmHg 35%
    20:00 +27°C° 0 mm 4 mps 747 mmHg 40%
    21:00 +26°C° 0 mm 3 mps 747 mmHg 45%
    22:00 +25°C° 0 mm 3 mps 747 mmHg 49%
    23:00 +24°C° 0 mm 3 mps 747 mmHg 54%
    Show more